Regional Weather Roundup
Issued by NWS

Home | Current Version | Previous Version | Text Only | Print | Product List | Glossary On
Versions: 1 2 3 4 5 6 7 8 9 10 11 12 13 14 15 16 17 18 19 20 21 22 23 24 25 26 27 28 29 30 31 32 33 34 35 36 37 38 39 40 41 42 43 44 45 46 47 48 49 50
000
ASUS43 KMPX 240810
RWRMN
WEATHER ROUNDUP FOR MINNESOTA
NATIONAL WEATHER SERVICE TWIN CITIES/CHANHASSEN MN
300 AM CDT SAT JUN 24 2017


NOTE: "FAIR" INDICATES FEW OR NO CLOUDS BELOW 12,000 FEET WITH NO
SIGNIFICANT WEATHER AND/OR OBSTRUCTIONS TO VISIBILITY. N/A MEANS
CURRENT SKY AND/OR WEATHER CONDITIONS ARE NOT AVAILABLE.

MNZ060>063-068>070-240900-
   Twin Cities Metro

CITY           SKY/WX    TMP DP  RH WIND       PRES   REMARKS
TWIN CITIES    MOCLDY    59  46  62 NW10      29.95S
ST PAUL        MOCLDY    59  47  64 W13       29.95S
CRYSTAL        MOCLDY    57  45  64 W7        29.94S
BLAINE         MOCLDY    57  48  72 W7        29.95S
LAKEVILLE        N/A     54  48  82 W7        29.96S
EDEN PRAIRIE   PTCLDY    57  47  69 W6        29.95S
SOUTH ST PAUL  PTCLDY    58  46  64 W5        29.95S
LAKE ELMO      FAIR      55  48  76 W5        29.96S
$$
MNZ001>005-007-008-013>017-022>024-027-028-240900-
   Northwest Minnesota

CITY           SKY/WX    TMP DP  RH WIND       PRES   REMARKS
BEMIDJI        PTCLDY    46  40  80 W10       29.93S
HALLOCK        CLOUDY    52  45  76 NW8       29.93S
ROSEAU           N/A     52  46  82 W10       29.90F
WARROAD        CLOUDY    50  46  87 W7        29.90S
THIEF RVR FALL CLOUDY    52  43  71 W8        29.95S
CROOKSTON      PTCLDY    48  43  81 W8        29.97R
FOSSTON        CLOUDY    50  41  71 W10       29.95F
DETROIT LAKES  CLEAR     50  39  66 W9        29.99S
MOORHEAD       CLEAR     46  39  76 W7        30.00F
PARK RAPIDS    CLEAR     47  38  71 NW5       29.95S
MAHNOMEN       CLOUDY    50  42  73 W9        29.96F
$$
MNZ006-009>011-018-025>026-240900-
   North Central Minnesota

CITY           SKY/WX    TMP DP  RH WIND       PRES   REMARKS
BAUDETTE       CLOUDY    50  49  96 W8        29.87F
FLAG ISLAND    CLOUDY    54  48  82 W12       29.86S
INTL FALLS     CLOUDY    53  50  89 W8        29.85S
WASKISH        CLOUDY    54  46  76 W12G18    29.90S
BIG FORK       CLOUDY    54  46  76 NW3       29.89S
LONGVILLE      MOCLDY    50  43  76 W8        29.92S
GRAND RAPIDS   CLOUDY    52  47  83 W8        29.91F
CRANE LAKE     CLOUDY    52  50  93 W6        29.86S
ORR            CLOUDY    52  46  82 W6        29.84S
COOK           CLOUDY    52  48  87 W8        29.87S
WALKER         FAIR      46  40  78 W7        29.93S
$$
MNZ012-019>021-037-240900-
   Northeast Minnesota

CITY           SKY/WX    TMP DP  RH WIND       PRES   REMARKS
DULUTH         CLOUDY    52  49  89 NW10      29.85S
ELY            DRIZZLE   52  52 100 W7        29.83S
HIBBING        CLOUDY    52  46  80 NW10G17   29.87F
EVELETH        CLOUDY    53  44  72 W6        29.87S
DULUTH HARBOR  CLOUDY    55  52  88 SW7       29.86F
TWO HARBORS    CLOUDY    57  52  82 NW8G16    29.81S
SILVER BAY     CLOUDY    55  52  88 NW5       29.80S
GRAND MARAIS     N/A     60  52  74 NW9G18    29.75R
G MARAIS ARPRT CLOUDY    54  46  76 NW7       29.79F
$$
MNZ029>031-032-039>041-046>048-054>057-064-240900-
   West Central Minnesota

CITY           SKY/WX    TMP DP  RH WIND       PRES   REMARKS
FERGUS FALLS   CLEAR     45  39  81 W7        30.00S
WHEATON        CLEAR     52  41  66 W8        30.05S
MORRIS         CLEAR     48  43  81 W8        30.01F
ALEXANDRIA     PTCLDY    51  43  74 W12       30.01S
ELBOW LAKE     FAIR      46  41  84 NW5       30.02S
WADENA         CLOUDY    50  39  66 W5        29.97S
GLENWOOD       PTCLDY    50  41  71 W9        30.00S
APPLETON       CLEAR     48  43  81 W8        30.03S
BENSON         CLEAR     48  43  81 NW8       30.04S
ORTONVILLE     CLEAR     54  43  66 W10       30.04F
MADISON        CLEAR     52  45  76 W7        30.05S
WILLMAR        FAIR      52  45  76 W8        30.03R
$$
MNZ033>034-036-042>043-049>051-058-059-240900-
   Central Minnesota

CITY           SKY/WX    TMP DP  RH WIND       PRES   REMARKS
ST CLOUD       PTCLDY    51  44  77 W6        29.96S
SAUK CENTRE    FAIR      49  44  80 W7        29.99S
PAYNESVILLE    CLEAR     48  43  84 W9        29.99F
AITKIN         CLOUDY    50  45  81 W3        29.91S
PINE RIVER     CLEAR     48  43  81 CALM      29.97F
BRAINERD       CLEAR     53  42  66 W9        29.95S
STAPLES        CLEAR     46  39  76 W6        29.97S
LONG PRAIRIE   CLOUDY    50  43  76 W3        29.98S
LITTLE FALLS   MOCLDY    52  41  66 W7        29.97S
LITCHFIELD     CLEAR     55  46  71 W7        30.00S
BUFFALO        PTCLDY    56  45  65 W6        29.98S
MAPLE LAKE     PTCLDY    56  47  70 W6        29.98S
HUTCHINSON     CLEAR     53  46  76 W10       30.01R
$$
MNZ037-044-045-052-053-240900-
   East Central Minnesota

CITY           SKY/WX    TMP DP  RH WIND       PRES   REMARKS
PRINCETON      MOCLDY    52  46  82 CALM      29.95F
MORA           CLEAR     50  45  81 W7        29.95S
CAMBRIDGE      CLEAR     55  45  67 W3        29.93S
RUSH CITY      CLOUDY    50  46  87 CALM      29.93S
MOOSE LAKE     CLOUDY    52  45  76 W5        29.89S
HINCKLEY       FAIR      50  46  87 W3        29.92S
CLOQUET        CLOUDY    54  46  76 W8        29.87F
MCGREGOR       CLEAR     52  46  82 W6        29.92S
$$
MNZ071>073-080-081-089-090-097-098-240900-
   Southwest Minnesota

CITY           SKY/WX    TMP DP  RH WIND       PRES   REMARKS
MONTEVIDEO     CLEAR     50  43  76 NW7       30.04S
GRANITE FALLS  CLEAR     51  45  80 W8        30.06R
CANBY          CLEAR     51  43  73 CALM      30.08R
MARSHALL       CLEAR     52  43  71 W10       30.06S
REDWOOD FALLS  CLEAR     51  43  74 W9        30.03S
OLIVIA         CLEAR     50  43  76 W7        30.02R
PIPESTONE      CLEAR     48  43  81 W5        30.09S
WINDOM         CLEAR     48  43  81 W6        30.06S
WORTHINGTON    CLEAR     50  42  74 W9        30.09S
JACKSON        CLEAR     50  43  76 CALM      30.07S
TRACY          CLEAR     54  43  67 W7        30.06S
SLAYTON        CLEAR     50  34  55 W8        30.09S
$$
MNZ065>067-074>077-082>085-091>093-240900-
   South Central Minnesota

CITY           SKY/WX    TMP DP  RH WIND       PRES   REMARKS
MANKATO        CLEAR     55  44  66 W13       30.00F
NEW ULM        CLEAR     52  43  71 W10       30.02S
ST JAMES       CLEAR     52  45  76 W8        30.05R
FAIRMONT       CLEAR     53  44  71 NW10      30.05R
GLENCOE        CLEAR     55  48  79 W7        29.99R
FARIBAULT      PTCLDY    55  48  76 W10       29.98S
OWATONNA       PTCLDY    54  48  82 W8        29.98S
WASECA         CLEAR     52  46  82 W8        30.01S
ALBERT LEA     MOCLDY    55  48  76 W7        30.00S
$$
MNZ078>079-086>088-094>096-240900-
   Southeast Minnesota

CITY           SKY/WX    TMP DP  RH WIND       PRES   REMARKS
ROCHESTER      CLEAR     53  49  86 W9        29.97S
RED WING       MOCLDY    57  48  72 W5        29.93S
STANTON        CLEAR     55  48  76 W7        29.95S
DODGE CENTER   CLEAR     54  46  76 W9        29.98R
WINONA         PTCLDY    59  52  77 CALM      29.94R
AUSTIN         PTCLDY    54  48  82 W7        29.98S
PRESTON        CLEAR     54  48  81 W9        29.98R
$$
ABBREVIATIONS USED IN REMARKS
   TC - TEMPERATURES IN CELSIUS
  WCI - WIND CHILL INDEX
   HX - HEAT INDEX
  VSB - VISIBILITY
$$



USA.gov is the U.S. government's official web portal to all federal, state and local government web resources and services.